Schleswig Airport ETNS

Flugplatz Daten

Name: Schleswig Airport

Ident: ETNS

Lat: 54,45930099

Long: 9,516329765

Platzhöhe: 70 ft

IataCode: WBG

City:

Metar

2022/08/10 19:20
ETNS 101920Z AUTO 07005KT 9999 // ////// 20/11 Q1026 ///

Taf

2019/01/28 18:31
TAF ETNS 281725Z 2818/2909 33010G20KT 5000 BR SCT005 SCT018 BKN040
TEMPO 2818/2819 34010KT 1600 SN BKN003
BECMG 2818/2820 33010G20KT 9999 NSW FEW010 BKN025
TEMPO 2820/2824 34010G20KT 5000 BR BKN015 BY ETGL
Gewünschte Webcam nicht vorhanden? Dann fügen Sie eine hinzu. Sie wird dann so schnell wie möglich freigeschaltet
Url: Title: